Location: Unnamed
(23.5608°S, 46.6833°W)
Time: 09:06:22
(UTC-03:00)

COSMOS 2251 DEB - Pass Details

Date: 14 December 2023
Orbit: 677 x 699 km, 74.0° (Epoch: 02 March)

Event Time Altitude Azimuth Distance (km) Brightness Sun altitude
Rises 20:47:40 0° 191° (S) 3,056 ? -23.6°
Reaches altitude 10° 20:50:01 10° 187° (S) 2,137 ? -24.0°
Enters shadow 20:54:31 63° 125° (SE) 769 ? -24.8°
